www.pogodaiklimat.ru

Погода и климат >> Архив погоды >> Дания >> Тирструп


ПОГОДА в Тирструпе

  • Прогноз погоды в Тирструпе
  • Монитор погоды в Тирструпе

АРХИВ ПОГОДЫ в Тирструпе

Время (UTC), дата Ветер
(напр.,м/с)
 
Видим.   Явления Облачность Т
(С)
Тd
(С)
f
(%)
Тe
(С)
Тes
(С)
Комфортность P
(гПа)
Po
(гПа)
Тmin
(С)
Tmax
(С)
R
(мм)
R24
(мм)
S
(см)
01 12.08 ЮЗ 3 17 км н/о +17.5 +14.6 83 +17 +17 1009.2 1006.3
02 12.08 Ю 3 16 км н/о +17.7 +14.7 83 +18 +18 1009.1 1006.2
03 12.08 Ю 4-9
{9}
18 км н/о +17.7 +14.7 83 +18 +18 1008.9 1006.0
04 12.08 Ю 3 17 км н/о +17.6 +15.0 85 +18 +18 1009.0 1006.1
05 12.08 З 3 12 км ливневой дождь н/о +15.4 +13.7 90 +15 +15 1009.1 1006.2 3
06 12.08 ЮЗ 3
{9}
18 км в посл. час дождь {ливн. осадки} н/о +16.5 +15.2 92 +16 +16 1008.6 1005.7 +15.4 +19.8 4
07 12.08 ЮЗ 4 22 км н/о +17.7 +15.7 88 +17 +17 1008.6 1005.7
08 12.08 ЮЗ 4 22 км н/о +18.9 +15.8 82 +20 +20 1008.7 1005.8
09 12.08 ЮЗ 3-9
{11}
26 км н/о +19.6 +15.0 75 +22 +22 комфорт 1009.0 1006.1
10 12.08 ЮЗ 5 30 км слаб. ливневой дождь н/о +19.8 +13.0 65 +21 +21 комфорт 1009.2 1006.3
11 12.08 ЮЗ 6 30 км {ливн. осадки} н/о +21.7 +13.0 58 +24 +24 комфорт 1009.1 1006.2
12 12.08 ЮЗ 7-12
{14}
30 км н/о +22.3 +12.2 53 +25 +25 комфорт 1009.2 1006.3
13 12.08 З 6 30 км н/о +22.4 +12.0 52 +25 +25 комфорт 1009.4 1006.5
14 12.08 З 6 35 км н/о +22.2 +11.0 49 +24 +24 комфорт 1009.4 1006.5
15 12.08 З 7-14
{14}
29 км н/о +21.3 +10.3 49 +23 +23 комфорт 1009.5 1006.6
16 12.08 З 5 28 км н/о +20.5 +10.9 54 +22 +22 комфорт 1009.8 1006.9
17 12.08 ЮЗ 5 26 км н/о +19.2 +10.7 58 +20 +20 1009.8 1006.9
18 12.08 З 4
{14}
35 км н/о +18.1 +10.7 62 +18 +18 1010.1 1007.2 +16.5 +22.7
19 12.08 З 4 35 км н/о +16.6 +10.8 69 +16 +16 1010.3 1007.4
20 12.08 Ю 1 30 км н/о +15.8 +10.9 73 +16 +16 1010.8 1007.9
21 12.08 ЮЗ 2
{10}
25 км н/о +15.9 +11.4 75 +16 +16 1011.1 1008.2
22 12.08 ЮЗ 3 29 км н/о +15.7 +11.5 76 +15 +15 1010.9 1008.0
23 12.08 ЮЗ 1 24 км н/о +14.2 +11.0 81 +15 +15 1010.6 1007.7
00 13.08 ЮЗ 2
{12}
22 км н/о +13.2 +11.0 87 +13 +13 1010.4 1007.5
01 13.08 ЮВ 1 18 км н/о +13.2 +11.4 89 +13 +13 1010.4 1007.5
02 13.08 ЮЗ 2 23 км н/о +13.9 +12.2 89 +13 +13 1009.9 1007.0
03 13.08 З 1 28 км н/о +13.7 +12.3 91 +14 +14 1009.8 1006.9
04 13.08 ЮЗ 1 22 км н/о +13.3 +12.0 92 +13 +13 1010.0 1007.1
05 13.08 З 2 18 км н/о +13.1 +12.1 94 +12 +12 1010.1 1007.2
06 13.08 З 2 23 км н/о +13.7 +12.8 94 +13 +13 1010.1 1007.2 +13.0 +18.0
07 13.08 З 3 26 км н/о +15.5 +13.4 87 +15 +15 1010.2 1007.3
08 13.08 З 4 30 км н/о +16.4 +12.2 76 +16 +16 1010.3 1007.4
09 13.08 З 5 27 км н/о +17.8 +11.4 66 +17 +17 1010.1 1007.2
10 13.08 З 4 30 км н/о +18.2 +9.6 57 +18 +18 1010.0 1007.1
11 13.08 З 5 35 км н/о +18.9 +9.9 56 +19 +19 1010.3 1007.4
12 13.08 З 3 45 км слаб. ливневой дождь н/о +17.4 +9.9 61 +17 +17 1010.4 1007.5
13 13.08 З 4 45 км {ливн. осадки} н/о +18.0 +9.9 59 +18 +18 1010.5 1007.6
14 13.08 З 7 35 км н/о +19.7 +9.7 52 +20 +20 1010.5 1007.6
15 13.08 З 6 50 км н/о +18.0 +9.4 57 +17 +17 1010.8 1007.9
16 13.08 З 5 45 км н/о +17.4 +9.1 58 +17 +17 1011.2 1008.3
17 13.08 З 7 35 км н/о +16.8 +8.3 57 +16 +16 1011.7 1008.8
18 13.08 З 4
{11}
40 км н/о +16.1 +9.0 63 +16 +16 1011.5 1008.6 +13.7 +19.8
19 13.08 З 3 50 км н/о +14.6 +8.2 65 +14 +14 1011.9 1009.0
20 13.08 З 4 50 км н/о +13.2 +8.6 74 +12 +12 1012.5 1009.6
21 13.08 З 4 50 км н/о +13.1 +8.9 76 +12 +12 1012.6 1009.7
22 13.08 З 3 45 км н/о +12.3 +9.0 80 +11 +11 1012.7 1009.8
23 13.08 ЮЗ 3 45 км н/о +12.1 +9.3 83 +11 +11 1012.6 1009.7
00 14.08 ЮЗ 2
{11}
50 км н/о +11.4 +9.0 85 +10 +10 1012.6 1009.7
01 14.08 ЮЗ 2 45 км н/о +11.2 +9.2 87 +10 +10 1012.7 1009.8
02 14.08 ЮЗ 2 45 км н/о +10.6 +9.0 90 +9 +9 1012.7 1009.8
03 14.08 ЮЗ 2 40 км н/о +10.0 +8.7 92 +9 +9 1012.6 1009.7
04 14.08 ЮЗ 2 40 км н/о +10.6 +9.7 94 +9 +9 1012.7 1009.8
05 14.08 ЮЗ 2 45 км н/о +11.5 +10.5 94 +11 +11 1012.8 1009.9
06 14.08 З 3 35 км н/о +13.8 +10.9 83 +13 +13 1012.9 1010.0 +9.9 +16.1
07 14.08 З 4 35 км н/о +15.0 +11.0 77 +14 +14 1013.1 1010.2
08 14.08 ЮЗ 4 40 км н/о +16.3 +10.8 70 +16 +16 1013.1 1010.2
09 14.08 З 4 40 км н/о +17.3 +11.0 66 +17 +17 1012.9 1010.0
10 14.08 ЮЗ 4 30 км н/о +18.6 +8.6 52 +19 +19 1012.8 1009.9
11 14.08 З 5 30 км слаб. ливневой дождь н/о +17.7 +10.6 63 +17 +17 1013.0 1010.1 0.9
12 14.08 З 5
{12}
30 км {ливн. осадки} н/о +18.9 +9.0 53 +19 +19 1013.1 1010.2 0.9
13 14.08 З 4 18 км ливневой дождь н/о +16.6 +10.9 69 +16 +16 1013.3 1010.4
14 14.08 Ю 2 40 км в посл. час дождь {ливн. осадки} н/о +16.1 +12.0 77 +16 +16 1013.2 1010.3 0.4
15 14.08 З 3
{9}
40 км н/о +18.6 +10.1 58 +19 +19 1013.0 1010.1 0.4
16 14.08 З 2 35 км слаб. ливневой дождь н/о +17.9 +10.0 60 +18 +18 1012.9 1010.0
17 14.08 З 3 35 км в посл. час дождь {ливн. осадки} н/о +18.3 +10.1 59 +19 +19 1012.8 1009.9
18 14.08 З 2
{12}
45 км н/о +17.1 +10.1 63 +18 +18 1013.0 1010.1 +13.8 +19.8
19 14.08 ЮЗ 1 45 км н/о +15.3 +10.7 74 +16 +16 1013.1 1010.2
20 14.08 ЮЗ 1 35 км н/о +13.9 +9.7 76 +14 +14 1013.2 1010.3
21 14.08 В 1 30 км н/о +12.4 +9.9 85 +13 +13 1013.2 1010.3
22 14.08 Ю 1 35 км н/о +11.9 +9.8 87 +13 +13 1012.9 1010.0
23 14.08 Ю 2 50 км н/о +12.5 +10.5 88 +12 +12 1012.8 1009.9
00 15.08 Ю 1 18 км морось {дождь} н/о +13.3 +11.3 88 +13 +13 1012.6 1009.7
01 15.08 ЮВ 1 35 км в посл. час морось {ливн. осадки} н/о +13.4 +11.8 90 +14 +14 1012.2 1009.3
02 15.08 Ю 1 10 км слаб. ливневой дождь н/о +13.6 +12.7 94 +14 +14 1011.7 1008.8 0.3
03 15.08 ЮВ 2 14 км в посл. час дождь {ливн. осадки} н/о +13.5 +13.0 97 +13 +13 1010.7 1007.8 0.4
04 15.08 В 1 5000 м дымка н/о +13.8 +13.5 98 +14 +14 1010.4 1007.5
05 15.08 ЮВ 3 13 км н/о +14.4 +14.0 97 +13 +13 1009.9 1007.0
06 15.08 ЮВ 2 30 км н/о +15.8 +14.8 94 +16 +16 1009.6 1006.7 +11.8 +17.2
07 15.08 Ю 1 35 км {туман} н/о +16.7 +13.8 83 +18 +18 1009.1 1006.2
08 15.08 ЮВ 2 35 км н/о +17.6 +13.2 75 +18 +18 1008.7 1005.8
09 15.08 Ю 4
{10}
30 км н/о +18.7 +12.9 69 +19 +19 1008.1 1005.2
10 15.08 Ю 6 35 км н/о +18.4 +12.9 70 +18 +18 1007.7 1004.8
11 15.08 ЮВ 4 50 км н/о +18.0 +13.5 75 +18 +18 1007.3 1004.4
12 15.08 ЮВ 4-9
{11}
40 км {дождь, морось} н/о +17.3 +13.9 80 +17 +17 1007.1 1004.2
13 15.08 ЮВ 4 4200 м слаб. ливневой дождь н/о +16.1 +14.8 92 +15 +15 1007.0 1004.1
14 15.08 ЮВ 3 25 км слаб. ливневой дождь н/о +16.4 +15.7 96 +16 +16 1006.6 1003.7 0.1
15 15.08 Ю 3
{9}
30 км в посл. час дождь {ливн. осадки} н/о +16.8 +15.5 92 +17 +17 1006.5 1003.6 0.0
16 15.08 Ю 3 40 км слаб. ливневой дождь н/о +17.4 +15.6 89 +18 +18 1006.4 1003.5
17 15.08 Ю 2 7000 м слаб. ливневой дождь н/о +16.9 +16.1 95 +17 +17 1006.7 1003.8 0.2
18 15.08 Ю 1
{9}
11 км слаб. ливневой дождь н/о +16.8 +16.4 97 +18 +18 1006.5 1003.6 +15.8 +19.1 0.7
19 15.08 Ю 1 9000 м в посл. час дождь {ливн. осадки} н/о +16.8 +16.5 98 +18 +18 1006.7 1003.8
20 15.08 ЮВ 2 7000 м дымка н/о +16.8 +16.6 99 +17 +17 1007.1 1004.2
21 15.08 Ю 1 8000 м дымка н/о +16.9 +16.7 99 +18 +18 1007.2 1004.3
22 15.08 Ю 1 9000 м дымка н/о +16.6 +16.4 99 +17 +17 1007.3 1004.4
23 15.08 ЮЗ 2 8000 м дымка н/о +16.5 +16.4 99 +17 +17 1007.7 1004.8
00 16.08 З 2 7000 м дымка н/о +15.8 +15.6 99 +16 +16 1008.1 1005.2
01 16.08 З 3 8000 м дымка н/о +15.3 +15.2 99 +14 +14 1008.3 1005.4
02 16.08 З 3 15 км н/о +15.5 +15.3 99 +15 +15 1008.7 1005.8
03 16.08 З 2 13 км н/о +15.4 +15.2 99 +15 +15 1008.9 1006.0
04 16.08 З 2 17 км н/о +15.4 +15.1 98 +15 +15 1009.3 1006.4
05 16.08 З 3 30 км н/о +15.1 +14.9 99 +14 +14 1009.8 1006.9
06 16.08 З 3 25 км н/о +15.9 +15.5 97 +16 +16 1010.5 1007.6 +14.8 +17.0
07 16.08 З 4 21 км н/о +16.5 +15.5 94 +16 +16 1010.9 1008.0
08 16.08 З 5 28 км н/о +17.1 +14.5 85 +16 +16 1011.4 1008.5
09 16.08 З 4 27 км н/о +17.5 +14.3 81 +17 +17 1011.5 1008.6
10 16.08 З 5 40 км н/о +17.3 +13.3 77 +17 +17 1012.0 1009.1
11 16.08 З 5 27 км н/о +17.1 +13.2 78 +17 +17 1012.2 1009.3
12 16.08 З 4 35 км н/о +16.8 +12.5 76 +16 +16 1012.4 1009.5
13 16.08 СЗ 2 35 км н/о +18.0 +12.2 69 +19 +19 1012.4 1009.5
14 16.08 З 4 30 км н/о +18.9 +11.5 62 +20 +20 1012.3 1009.4
15 16.08 З 3 30 км н/о +18.8 +11.6 63 +20 +20 1012.2 1009.3
16 16.08 З 2 30 км н/о +18.8 +12.0 65 +20 +20 1012.0 1009.1
17 16.08 З 3 28 км н/о +19.0 +10.3 57 +20 +20 1012.0 1009.1
18 16.08 ЮЗ 2 30 км н/о +16.8 +10.6 67 +17 +17 1011.9 1009.0 +15.9 +19.2
19 16.08 Ю 2 29 км н/о +14.8 +10.9 77 +15 +15 1012.2 1009.3
20 16.08 Ю 1 40 км н/о +14.4 +10.0 75 +15 +15 1012.1 1009.2
21 16.08 Ю 1 30 км н/о +13.7 +10.5 81 +14 +14 1011.7 1008.8
22 16.08 ЮВ 2 30 км н/о +14.2 +11.6 84 +14 +14 1011.0 1008.1
23 16.08 ЮВ 2 40 км н/о +16.1 +12.5 79 +16 +16 1010.4 1007.5
00 17.08 ЮВ 3 35 км н/о +16.9 +13.3 79 +17 +17 1009.7 1006.8
01 17.08 Ю 3 35 км н/о +17.4 +13.6 78 +17 +17 1008.8 1005.9
02 17.08 Ю 3 30 км н/о +17.6 +14.8 84 +18 +18 1007.8 1004.9
03 17.08 Ю 4 24 км слаб. ливневой дождь н/о +17.8 +15.4 86 +18 +18 1007.1 1004.2 0.0
04 17.08 Ю 3 14 км слаб. дождь н/о +16.5 +14.8 90 +16 +16 1007.0 1004.1 0.6
05 17.08 Ю 3 7000 м дождь н/о +16.0 +15.1 94 +15 +15 1006.5 1003.6 1
06 17.08 Ю 4
{9}
8000 м слаб. дождь н/о +15.7 +15.3 97 +15 +15 1006.0 1003.1 +13.0 +17.8 4
07 17.08 Ю 4 7000 м дождь н/о +15.7 +15.4 98 +15 +15 1005.5 1002.6 2
08 17.08 Ю 5 10 км слаб. дождь н/о +15.9 +15.5 97 +15 +15 1005.2 1002.3 1
09 17.08 Ю 5-10
{11}
12 км в посл. час морось {дождь} н/о +16.4 +15.7 96 +16 +16 1004.7 1001.8 3
10 17.08 Ю 5 6000 м слаб. ливневой дождь н/о +16.2 +15.9 98 +15 +15 1004.5 1001.6 0.5
11 17.08 Ю 5 8000 м ливневой дождь н/о +16.3 +16.1 99 +15 +15 1004.1 1001.2 2
12 17.08 Ю 4
{13}
15 км в посл. час дождь {ливн. осадки} н/о +16.7 +16.4 98 +16 +16 1004.2 1001.3 3
13 17.08 Ю 4 17 км н/о +17.3 +16.7 96 +17 +17 1004.1 1001.2
14 17.08 Ю 3 18 км н/о +17.8 +16.8 94 +18 +18 1004.1 1001.2
15 17.08 Ю 4
{10}
24 км н/о +18.0 +16.9 93 +18 +18 1004.2 1001.3
16 17.08 Ю 4 16 км слаб. ливневой дождь н/о +18.5 +17.7 95 +19 +19 1004.0 1001.1 0.2
17 17.08 Ю 2 18 км {ливн. осадки} н/о +18.7 +15.7 83 +20 +20 1004.3 1001.4
18 17.08 Ю 3
{10}
40 км н/о +18.3 +16.3 88 +19 +19 1004.6 1001.7 +15.6 +18.8 0.2
19 17.08 Ю 3 40 км н/о +17.3 +16.2 93 +17 +17 1004.7 1001.8
20 17.08 ЮЗ 2 25 км н/о +16.2 +15.5 96 +16 +16 1004.9 1002.0
21 17.08 ЮЗ 2 23 км н/о +15.7 +14.2 91 +16 +16 1005.0 1002.1
22 17.08 ЮЗ 2 17 км н/о +15.3 +14.0 92 +15 +15 1005.3 1002.4
23 17.08 штиль 0 13 км н/о +14.5 +13.3 93 +14 +14 1005.5 1002.6
00 18.08 Ю 1 2800 м дымка н/о +13.4 +12.6 95 +13 +13 1005.8 1002.9
01 18.08 ЮЗ 2 9000 м дымка н/о +12.9 +12.5 97 +12 +12 1005.3 1002.4
02 18.08 З 3 10 км н/о +13.5 +13.1 97 +12 +12 1005.1 1002.2
03 18.08 Ю 1 10 км дымка н/о +13.1 +12.7 97 +13 +13 1004.9 1002.0
04 18.08 Ю 1 200 м туман н/о +12.1 +11.7 97 +13 +13 1004.6 1001.7
05 18.08 ЮЗ 1 12 км в посл. час туман н/о +12.2 +12.1 99 +12 +12 1005.0 1002.1
06 18.08 ЮВ 1 12 км н/о +14.6 +14.4 99 +15 +15 1004.6 1001.7 +11.3 +18.2
07 18.08 Ю 2 14 км н/о +15.9 +15.7 99 +16 +16 1004.8 1001.9
08 18.08 Ю 2 11 км н/о +17.0 +16.2 95 +17 +17 1004.5 1001.6
09 18.08 ЮВ 2 26 км н/о +17.5 +15.7 89 +18 +18 1004.2 1001.3
10 18.08 Ю 3 19 км н/о +18.6 +15.5 82 +20 +20 1004.1 1001.2
11 18.08 Ю 3 30 км н/о +18.4 +15.3 82 +19 +19 1004.0 1001.1
12 18.08 Ю 4 22 км н/о +18.4 +15.4 83 +19 +19 1003.9 1001.0
13 18.08 Ю 2 16 км слаб. дождь н/о +17.8 +16.0 89 +18 +18 1003.4 1000.5
14 18.08 Ю 2 21 км слаб. ливневой дождь н/о +17.5 +16.4 93 +18 +18 1003.5 1000.6 0.1
15 18.08 Ю 3 13 км слаб. ливневой дождь н/о +15.7 +14.7 94 +15 +15 1003.6 1000.7 1
16 18.08 ЮЗ 1 11 км дождь {ливн. осадки} н/о +15.0 +14.5 97 +15 +15 1003.7 1000.8 5
17 18.08 ЮВ 2 23 км в посл. час морось {дождь} н/о +15.3 +14.9 97 +15 +15 1003.3 1000.4 0.2
18 18.08 Ю 3 27 км н/о +15.5 +14.8 96 +15 +15 1003.3 1000.4 +14.6 +19.4 6
19 18.08 Ю 2 22 км н/о +15.2 +14.8 97 +15 +15 1003.8 1000.9
20 18.08 ЮЗ 2 21 км н/о +14.9 +14.5 97 +15 +15 1004.1 1001.2
21 18.08 ЮЗ 2 17 км н/о +14.5 +14.2 98 +14 +14 1004.7 1001.8
22 18.08 ЮЗ 2 16 км н/о +14.2 +13.9 98 +14 +14 1005.5 1002.6
23 18.08 ЮЗ 2 18 км н/о +13.5 +13.1 97 +13 +13 1005.9 1003.0
00 19.08 ЮЗ 2 15 км н/о +13.0 +12.7 98 +12 +12 1006.2 1003.3

 

Местоположение метеостанции Тирструп (Дания): широта 56.32 долгота 10.63 высота над уровнем моря 23 м.

В архиве по умолчанию представлена погода в Тирструпе за последнюю неделю. Архивные данные за месяц целиком и за предыдущие месяцы, начиная с января 2011 года, Вы можете получить, выбрав интересующий диапазон дат из раскрывающегося списка и нажав кнопку "Ввод!".


*Определитесь, кто Вы:
робот инопланетянин человек

Внимание! Время в таблицах - всемирное. Для получения местного времени необходимо прибавить поправку, которая равна 1 ч.

Смотрите также архив погоды в соседних городах и на ближайших метеорологических станциях:

Погода на Мысе Sletterhage (Дания) (26 км)
Погода в Орхусе (Дания) (41 км)
Погода в Хальде V (Дания) (43 км)
Погода в Гнибене (Дания) (52 км)
Погода на Мысе Roesnaes (Дания) (65 км)
Погода в Фоулуме (Дания) (68 км)
Погода в Энхолте (Дания) (70 км)
Погода в Хорсенсе (Дания) (72 км)
Погода в Алеструпе (Дания) (84 км)
Погода в Хольбеке (Дания) (89 км)

Пояснения к столбцам:

Ветер - указаны скорость ветра в м/с - средняя за 10 мин, порывы в срок и между сроками (в фигурных скобках) и направление, откуда дует ветер: С - северный, СВ - северо-восточный, В - восточный, ЮВ - юго-восточный, Ю - южный, ЮЗ - юго-западный, З - западный, СЗ - северо-западный.
Видимость - горизонтальная дальность видимости в метрах или километрах. При видимости от 1 до 10 км при отсутствии осадков обычно наблюдается дымка, при ухудшении видимости до 1 км и менее - туман. В сухую погоду видимость может ухудшаться дымом, пылью или мглою.
Явления - указаны атмосферные явления, наблюдавшиеся в срок или в последний час перед сроком; фигурными скобками обозначены явления, наблюдавшиеся между сроками (за 1-3 часа до срока); квадратными скобками обозначены град или гололедные отложения с указанием их диаметра в мм.
Облачность - указаны через наклонную черту общая и нижняя облачность в баллах и высота нижней границы облаков в метрах; квадратными скобками обозначены формы облаков: Ci - перистые, Cs - перисто-слоистые, Cc - перисто-кучевые, Ac - высококучевые, As - высокослоистые, Sc - слоисто-кучевые, Ns - слоисто-дождевые, Cu - кучевые, Cb - кучево-дождевые. Подробнее классификацию облаков см. в Атласе облаков (PDF).
T - Температура воздуха - температура, измеренная на высоте 2 м над землей.
Td - Температура точки росы - температура, при понижении до которой содержащийся в воздухе водяной пар достигнет насыщения.
f - Относительная влажность воздуха - влажноcть воздуха, измеренная на высоте 2 м над землей.
Te - Эффективная температура - температура, которую ощущает одетый по сезону человек в тени. Характеристика душности погоды. При расчете учитывается влияние влажности воздуха и скорости ветра на теплоощущения человека.
Tes - Эффективная температура на солнце - температура, которую ощущает человек, с поправкой на солнечный нагрев. Характеристика знойности погоды. Зависит от высоты солнца над горизонтом, облачности и скорости ветра. Ночью, в пасмурную погоду, а также при ветре 12 м/с и более поправка равна нулю.
P - Атмосферное давление - приведенное к уровню моря атмосферное давление.
Po - Атмосферное давление - измеренное на уровне метеостанции атмосферное давление.
Tmin - Минимальная температура - минимум температуры воздуха на высоте 2 м над землей.
Tmax - Максимальная температура - максимум температуры воздуха на высоте 2 м над землей.
R - Количество осадков - Количество выпавших осадков за период времени, мм. При наведении курсора мыши на число - период времени, за который выпало указанное количество осадков.
R24 - Количество осадков - Количество выпавших осадков за 24 часа, мм.
S - Снежный покров - Высота снежного покрова, см. При наведении курсора мыши на число - состояние снежного покрова и степень покрытия местности в баллах.